Date String (YYYY-MM-DD hh:mm:ss) UTC,Instrument flags,Ambient pressure (hPa),Sample flow (lpm),Bypass flow (lpm),Sample temperature (°C),Ambient temperature (°C),ASC tube jacket temperature (°C),LED temperature (°C),Box temperature (°C),Sample RH (%),Span deviation,Mass concentration (μg/m³),Mass concentration (μg/m³),Mass concentration (μg/m³)
DateTimeUTC,F1_M11,P_M11,Q1_M11,Q2_M11,T1_M11,T2_M11,T3_M11,T4_M11,T5_M11,U1_M11,ZSPAN_M11,X0_M11,X2_M11,X1_M11
2021-08-29 11:00:00,,0832.9,5.00,0.00,29.8,28.9,00.0,38.9,31.6,26.1,0002.1,0017.65,0011.78,0011.06
2021-08-29 11:01:00,,0833.0,5.00,0.00,29.8,28.9,00.0,38.9,31.7,26.1,0002.1,0017.81,0011.82,0011.08
2021-08-29 11:02:00,,0832.9,5.01,0.00,29.9,29.0,00.0,38.9,31.7,26.0,0002.2,0017.89,0011.84,0011.09
2021-08-29 11:03:00,,0832.9,5.01,0.00,29.9,29.0,00.0,38.9,31.7,26.0,0002.1,0018.02,0011.93,0011.12
2021-08-29 11:04:00,,0832.9,5.00,0.00,29.9,29.1,00.0,39.0,31.7,25.9,0002.2,0018.60,0011.95,0011.14
2021-08-29 11:05:00,,0832.9,4.99,0.00,29.9,29.1,00.0,39.0,31.8,25.9,0002.2,0018.40,0011.95,0011.16
2021-08-29 11:06:00,,0832.9,5.01,0.00,30.0,29.1,00.0,39.0,31.8,25.8,0002.2,0017.70,0011.94,0011.16
2021-08-29 11:07:00,,0832.9,4.99,0.00,30.0,29.2,00.0,39.0,31.8,25.8,0002.2,0017.45,0011.98,0011.17
2021-08-29 11:08:00,,0832.9,5.00,0.00,30.0,29.2,00.0,39.0,31.9,25.8,0001.9,0017.30,0011.97,0011.18
2021-08-29 11:09:00,,0832.9,5.01,0.00,30.0,29.3,00.0,39.1,31.9,25.7,0002.1,0018.19,0011.97,0011.19
2021-08-29 11:10:00,,0832.9,4.99,0.00,30.0,29.3,00.0,39.1,31.9,25.7,0002.4,0018.60,0012.03,0011.21
2021-08-29 11:11:00,,0832.9,4.99,0.00,30.0,28.4,00.0,39.1,31.7,25.7,0002.6,0018.86,0012.12,0011.23
2021-08-29 11:12:00,,0832.8,5.01,0.00,29.9,26.7,00.0,39.1,31.3,25.9,0002.7,0019.26,0012.12,0011.24
2021-08-29 11:13:00,,0832.8,5.00,0.00,29.8,26.4,00.0,39.0,31.1,26.1,0002.8,0019.28,0012.08,0011.22
2021-08-29 11:14:00,,0832.8,4.99,0.00,29.7,26.7,00.0,39.0,31.1,26.2,0002.8,0019.24,0011.99,0011.19
2021-08-29 11:15:00,,0832.9,5.00,0.00,29.7,27.1,00.0,38.9,31.2,26.3,0002.9,0019.31,0011.91,0011.15
2021-08-29 11:16:00,,0832.8,5.00,0.00,29.6,27.5,00.0,38.9,31.2,26.3,0002.8,0019.86,0011.91,0011.13
2021-08-29 11:17:00,,0832.8,5.00,0.00,29.6,27.8,00.0,38.9,31.3,26.3,0002.8,0020.07,0011.95,0011.13
2021-08-29 11:18:00,,0832.9,5.01,0.00,29.7,28.0,00.0,38.9,31.3,26.3,0002.6,0020.07,0011.96,0011.12
2021-08-29 11:19:00,,0832.8,4.99,0.00,29.7,28.2,00.0,38.9,31.4,26.3,0002.6,0019.49,0011.94,0011.10
2021-08-29 11:20:00,,0832.9,5.00,0.00,29.7,28.4,00.0,38.9,31.4,26.3,0002.7,0019.03,0011.93,0011.08
2021-08-29 11:21:00,,0832.8,5.01,0.00,29.7,28.5,00.0,38.9,31.5,26.2,0002.5,0019.18,0011.87,0011.03
2021-08-29 11:22:00,,0832.8,5.01,0.00,29.7,28.6,00.0,38.9,31.5,26.2,0002.3,0018.79,0011.80,0011.00
2021-08-29 11:23:00,,0832.8,4.99,0.00,29.8,28.7,00.0,38.9,31.5,26.1,0002.4,0018.41,0011.72,0010.98
2021-08-29 11:24:00,,0832.8,5.00,0.00,29.8,28.8,00.0,38.9,31.5,26.0,0002.2,0019.15,0011.72,0010.97
2021-08-29 11:25:00,,0832.8,5.01,0.00,29.8,28.8,00.0,38.9,31.6,26.0,0002.3,0019.03,0011.71,0010.96
2021-08-29 11:26:00,,0832.9,5.01,0.00,29.8,28.9,00.0,38.9,31.6,26.0,0002.2,0018.52,0011.72,0010.97
2021-08-29 11:27:00,,0832.8,5.00,0.00,29.9,28.9,00.0,38.9,31.7,25.9,0001.9,0017.90,0011.70,0010.98
2021-08-29 11:28:00,,0832.9,4.99,0.00,29.9,29.0,00.0,38.9,31.7,25.9,0002.0,0018.04,0011.67,0010.96
2021-08-29 11:29:00,,0832.8,5.00,0.00,29.9,29.0,00.0,38.9,31.7,25.9,0002.2,0018.24,0011.65,0010.96
2021-08-29 11:30:00,,0832.8,5.00,0.00,29.9,29.1,00.0,39.0,31.7,25.8,0002.3,0018.46,0011.65,0010.96
2021-08-29 11:31:00,,0832.8,4.99,0.00,29.9,29.1,00.0,39.0,31.7,25.8,0002.3,0018.73,0011.68,0010.95
2021-08-29 11:32:00,,0832.9,5.01,0.00,30.0,29.2,00.0,39.0,31.8,25.8,0002.1,0018.03,0011.69,0010.97
2021-08-29 11:33:00,,0832.9,5.01,0.00,30.0,29.2,00.0,39.0,31.8,25.7,0002.2,0018.08,0011.73,0010.98
2021-08-29 11:34:00,,0832.9,4.99,0.00,30.0,29.2,00.0,39.0,31.9,25.7,0002.0,0018.24,0011.78,0010.98
2021-08-29 11:35:00,,0832.9,5.02,0.00,30.0,29.3,00.0,39.1,31.9,25.7,0002.0,0017.38,0011.84,0011.01
2021-08-29 11:36:00,,0832.9,5.01,0.00,30.1,29.3,00.0,39.1,31.9,25.7,0001.9,0017.80,0011.90,0011.02
2021-08-29 11:37:00,,0832.9,4.99,0.00,30.1,28.7,00.0,39.1,31.8,25.7,0001.9,0017.88,0011.93,0011.04
2021-08-29 11:38:00,,0832.9,5.00,0.00,29.9,26.8,00.0,39.1,31.3,25.8,0002.1,0018.02,0011.96,0011.06
2021-08-29 11:39:00,,0832.8,5.01,0.00,29.8,26.3,00.0,39.1,31.1,26.0,0002.2,0018.28,0012.01,0011.06
2021-08-29 11:40:00,,0832.8,5.00,0.00,29.7,26.6,00.0,39.0,31.2,26.2,0002.1,0018.02,0012.00,0011.07
2021-08-29 11:41:00,,0832.8,5.00,0.00,29.7,27.0,00.0,39.0,31.2,26.3,0002.0,0018.62,0011.99,0011.07
2021-08-29 11:42:00,,0832.8,4.99,0.00,29.7,27.4,00.0,38.9,31.2,26.3,0001.9,0018.15,0011.97,0011.08
2021-08-29 11:43:00,,0832.9,5.01,0.00,29.7,27.7,00.0,38.9,31.3,26.3,0002.1,0018.28,0011.95,0011.06
2021-08-29 11:44:00,,0832.9,4.98,0.00,29.7,28.0,00.0,38.9,31.4,26.3,0002.2,0018.65,0011.95,0011.05
2021-08-29 11:45:00,,0833.0,4.99,0.00,29.7,28.2,00.0,38.9,31.4,26.3,0002.0,0018.88,0011.97,0011.06
2021-08-29 11:46:00,,0833.0,5.01,0.00,29.7,28.3,00.0,38.9,31.4,26.2,0002.0,0018.98,0011.99,0011.06
2021-08-29 11:47:00,,0833.0,4.99,0.00,29.7,28.5,00.0,38.9,31.5,26.2,0002.0,0018.99,0011.98,0011.07
2021-08-29 11:48:00,,0832.9,5.00,0.00,29.7,28.6,00.0,38.9,31.5,26.2,0002.1,0019.26,0011.97,0011.06
2021-08-29 11:49:00,,0832.9,5.00,0.00,29.8,28.7,00.0,38.9,31.5,26.2,0002.1,0019.18,0011.99,0011.06
2021-08-29 11:50:00,,0833.0,5.01,0.00,29.8,28.7,00.0,38.9,31.6,26.1,0002.2,0018.57,0011.97,0011.07
2021-08-29 11:51:00,,0833.0,4.99,0.00,29.8,28.8,00.0,38.9,31.6,26.1,0002.3,0018.80,0011.99,0011.07
2021-08-29 11:52:00,,0833.0,5.01,0.00,29.8,28.9,00.0,38.9,31.6,26.0,0002.2,0018.73,0012.05,0011.10
2021-08-29 11:53:00,,0833.0,4.99,0.00,29.8,28.9,00.0,38.9,31.6,26.0,0002.0,0018.90,0012.07,0011.11
2021-08-29 11:54:00,,0833.0,5.01,0.00,29.8,29.0,00.0,38.9,31.6,26.0,0001.8,0018.91,0012.10,0011.14
2021-08-29 11:55:00,,0833.0,5.00,0.00,29.9,29.0,00.0,39.0,31.7,26.0,0001.9,0019.37,0012.11,0011.17
2021-08-29 11:56:00,,0833.0,5.00,0.00,29.9,29.0,00.0,39.0,31.7,25.9,0002.2,0019.37,0012.11,0011.18
2021-08-29 11:57:00,,0833.0,4.99,0.00,29.9,29.1,00.0,39.0,31.7,25.9,0002.3,0019.32,0012.07,0011.16
2021-08-29 11:58:00,,0833.1,5.00,0.00,29.9,29.1,00.0,39.0,31.8,25.9,0002.3,0019.47,0012.05,0011.15
2021-08-29 11:59:00,,0833.1,5.00,0.00,30.0,29.2,00.0,39.0,31.8,25.8,0002.4,0019.36,0012.02,0011.17
